Total_Precipitation_Accumulation
1.45 1.53 1.59 1.63 1.71 1.72 1.79 1.94 2.15 2.08 1.84 1.62 1.49 1.49 1.58 1.70 1.93 1.76 1.68 1.63 1.46 1.38 1.36 1.37 1.39 1.41 1.52 1.67 1.79 1.86 1.84 1.84 1.86 1.94 2.05 2.19 2.36 2.50
1.30 1.34 1.38 1.45 1.65 1.76 1.85 1.95 2.12 2.20 2.06 1.68 1.49 1.39 1.49 1.56 1.84 1.75 1.78 1.82 1.54 1.33 1.25 1.33 1.39 1.37 1.39 1.41 1.43 1.50 1.58 1.61 1.62 1.69 1.82 1.92 2.04 2.22
1.19 1.20 1.25 1.35 1.49 1.54 1.68 1.81 2.02 2.22 2.23 1.88 1.62 1.48 1.55 1.62 1.69 1.66 1.61 1.55 1.46 1.42 1.22 1.22 1.44 1.61 1.50 1.35 1.29 1.27 1.32 1.38 1.45 1.50 1.62 1.78 1.87 1.95
1.07 1.11 1.06 1.13 1.29 1.39 1.52 1.62 1.76 1.92 2.05 1.96 1.71 1.61 1.58 1.64 1.76 1.77 1.56 1.43 1.35 1.41 1.26 1.18 1.33 1.71 1.77 1.52 1.39 1.30 1.22 1.19 1.23 1.32 1.42 1.51 1.64 1.81
0.95 1.04 1.08 1.19 1.27 1.37 1.50 1.53 1.61 1.67 1.88 1.88 1.70 1.68 1.69 1.68 1.83 1.77 1.52 1.51 1.21 1.19 1.20 1.19 1.29 1.86 2.23 1.98 1.68 1.52 1.33 1.20 1.10 1.14 1.25 1.35 1.38 1.44
0.85 0.90 0.98 1.13 1.25 1.42 1.47 1.54 1.65 1.76 1.85 1.91 1.83 1.81 1.81 1.83 1.92 1.95 1.76 1.57 1.32 1.05 1.16 1.23 1.38 1.82 2.40 2.55 2.13 1.86 1.64 1.46 1.28 1.16 1.15 1.15 1.14 1.11
0.90 0.89 0.88 0.96 1.13 1.24 1.30 1.49 1.76 1.92 1.91 1.95 1.92 1.91 1.88 1.96 1.89 1.83 1.81 1.68 1.43 1.20 1.25 1.22 1.45 2.06 2.64 2.94 2.71 2.13 1.73 1.56 1.44 1.30 1.21 1.13 1.07 1.03
0.96 0.94 0.83 0.83 0.87 0.93 1.02 1.17 1.44 1.69 1.84 1.92 1.90 1.87 1.84 1.89 1.88 1.81 1.84 1.85 1.68 1.30 1.31 1.39 1.69 2.53 3.06 3.26 3.15 2.35 1.71 1.50 1.43 1.37 1.30 1.22 1.11 1.04
0.96 0.97 0.81 0.71 0.84 0.94 0.96 0.99 1.10 1.30 1.58 1.82 1.87 1.74 1.84 1.91 1.99 1.98 1.89 1.89 1.81 1.47 1.43 1.58 1.86 2.52 2.96 3.33 3.25 2.50 1.92 1.59 1.49 1.42 1.34 1.27 1.19 1.09
0.83 0.89 0.94 0.94 0.86 0.90 0.95 1.11 1.29 1.40 1.46 1.48 1.65 1.69 1.71 1.74 1.76 1.80 1.85 1.87 1.73 1.47 1.49 1.79 1.95 2.34 2.70 3.18 3.11 2.43 1.97 1.70 1.55 1.46 1.35 1.23 1.16 1.11
0.68 0.68 0.73 0.79 0.76 0.84 1.00 1.26 1.48 1.66 1.52 1.48 1.53 1.68 1.67 1.52 1.42 1.59 1.87 1.98 1.79 1.49 1.40 1.68 1.88 2.07 2.41 2.75 2.65 2.31 1.95 1.74 1.56 1.41 1.32 1.23 1.14 1.12
0.74 0.72 0.75 0.74 0.74 0.88 1.08 1.40 1.62 1.74 1.59 1.50 1.61 1.74 1.67 1.58 1.53 1.63 1.86 1.89 1.79 1.71 1.45 1.57 1.73 1.85 2.24 2.36 2.17 1.93 1.84 1.83 1.68 1.51 1.36 1.22 1.11 1.04
0.72 0.78 0.83 0.83 0.78 0.89 1.10 1.35 1.58 1.65 1.61 1.58 1.62 1.65 1.68 1.70 1.61 1.60 1.67 1.69 1.72 1.69 1.38 1.53 1.77 1.86 2.07 2.18 2.07 1.90 1.70 1.67 1.67 1.73 1.67 1.41 1.17 1.04
0.78 0.80 0.83 0.85 0.84 0.96 1.09 1.36 1.61 1.77 1.66 1.55 1.48 1.45 1.45 1.48 1.46 1.37 1.35 1.36 1.41 1.46 1.37 1.49 1.84 1.99 1.95 1.88 1.98 1.90 1.79 1.74 1.67 1.72 1.79 1.68 1.44 1.33
0.69 0.84 0.84 0.80 0.93 1.20 1.38 1.53 1.71 1.84 1.73 1.52 1.42 1.32 1.26 1.24 1.22 1.25 1.24 1.21 1.15 1.10 1.03 1.20 1.55 1.78 1.84 1.81 1.85 1.83 1.94 2.09 1.93 1.87 1.80 1.68 1.55 1.41
0.58 0.77 0.93 0.99 1.14 1.41 1.64 1.78 1.85 1.80 1.60 1.42 1.32 1.26 1.19 1.17 1.18 1.16 1.20 1.20 1.23 1.19 1.06 1.07 1.26 1.51 1.67 1.65 1.71 1.79 1.87 2.27 2.26 2.01 1.87 1.82 1.69 1.55
0.52 0.73 0.94 1.07 1.27 1.48 1.61 1.62 1.61 1.55 1.48 1.33 1.22 1.17 1.16 1.15 1.14 1.14 1.17 1.12 1.15 1.15 1.14 1.12 1.17 1.27 1.36 1.45 1.59 1.67 1.82 2.03 2.07 1.89 1.82 1.91 1.88 1.68
0.55 0.80 1.01 1.12 1.29 1.41 1.50 1.48 1.39 1.33 1.29 1.25 1.21 1.14 1.11 1.11 1.13 1.10 1.07 1.07 1.11 1.06 1.00 0.98 0.98 1.03 1.15 1.29 1.46 1.55 1.60 1.78 1.82 1.71 1.58 1.68 1.88 1.79
0.60 0.82 1.02 1.17 1.28 1.32 1.35 1.33 1.28 1.22 1.14 1.11 1.10 1.07 1.03 1.02 1.02 0.99 0.96 0.97 0.98 0.94 0.86 0.82 0.81 0.85 1.01 1.34 1.49 1.51 1.48 1.52 1.59 1.55 1.48 1.50 1.72 1.82
0.68 0.85 1.00 1.06 1.14 1.21 1.22 1.22 1.18 1.11 1.06 1.05 1.09 1.07 0.98 0.92 0.87 0.87 0.88 0.84 0.82 0.78 0.76 0.74 0.74 0.83 0.97 1.20 1.51 1.59 1.41 1.26 1.28 1.35 1.34 1.39 1.53 1.58
0.72 0.83 0.88 0.93 0.98 1.04 1.07 1.05 1.03 1.00 0.95 0.94 0.95 0.95 0.92 0.84 0.79 0.74 0.73 0.67 0.65 0.67 0.72 0.78 0.79 0.70 0.70 0.82 1.10 1.31 1.33 1.32 1.25 1.21 1.17 1.26 1.27 1.16
0.68 0.75 0.76 0.76 0.79 0.83 0.82 0.78 0.79 0.80 0.79 0.82 0.81 0.81 0.82 0.78 0.71 0.65 0.63 0.63 0.64 0.62 0.62 0.65 0.58 0.55 0.62 0.78 0.97 1.12 1.14 1.06 1.04 0.99 0.96 0.95 0.95 1.03
0.58 0.62 0.65 0.65 0.62 0.62 0.65 0.65 0.67 0.73 0.75 0.75 0.74 0.73 0.71 0.66 0.59 0.55 0.55 0.54 0.53 0.52 0.55 0.61 0.58 0.57 0.62 0.70 0.83 0.89 0.87 0.83 0.80 0.81 0.87 0.91 0.86 0.93